Regional Weather Roundup
Issued by NWS

Home | Current Version | Previous Version | Text Only | Print | Product List | Glossary On
Versions: 1 2 3 4 5 6 7 8 9 10 11 12 13 14 15 16 17 18 19 20 21 22 23 24 25 26 27 28 29 30 31 32 33 34 35 36 37 38 39 40 41 42 43 44 45 46 47 48 49 50
000
ASUS45 KCYS 030110
RWRWY

WYOMING REGIONAL WEATHER ROUNDUP
NATIONAL WEATHER SERVICE CHEYENNE WY
600 PM MST MON MAR 02 2015

NOTE:  "FAIR" INDICATES FEW OR NO CLOUDS BELOW 12,000 FEET
WITH NO SIGNIFICANT WEATHER AND/OR OBSTRUCTIONS TO VISIBILITY.

WYZ001-030200-
YELLOWSTONE NATIONAL PARK

CITY           SKY/WX    TMP DP  RH WIND       PRES   REMARKS
LK YELLOWSTONE   N/A     24  16  71 CALM      29.63S
W YELLOWSTONE  NOT AVBL

$$
WYZ002>013-054>058-071-098>099-030200-
NORTHERN WYOMING

CITY           SKY/WX    TMP DP  RH WIND       PRES   REMARKS
JACKSON        CLOUDY    27  19  74 N9        29.60F WCI  17
CODY           CLOUDY    34  16  47 NW13G18   29.67S WCI  25
GREYBULL       CLOUDY    37  14  38 SW6       29.64F WCI  32
WORLAND        CLOUDY    34  19  54 CALM      29.65S
SHERIDAN       MOCLDY    34  23  64 NW7       29.71S WCI  28
BUFFALO        CLOUDY    35   7  31 NW12      29.68S WCI  27
GILLETTE       MOCLDY    36  14  40 NE10      29.67S WCI  28
HULETT         FAIR      36  18  48 N8        29.71R WCI  29
NEWCASTLE      FAIR      36  19  51 N5        29.65F WCI  32

$$
WYZ014>020-022>026-101>103-030200-
CENTRAL WYOMING

CITY           SKY/WX    TMP DP  RH WIND       PRES   REMARKS
BIG PINEY      MOCLDY    30  20  66 E5        29.56F WCI  25
PINEDALE       LGT SNOW  27  23  86 N6        29.57F WCI  20
DUBOIS         LGT SNOW  25  19  80 CALM      29.58S
LANDER         MOCLDY    24  15  68 N5        29.60F WCI  18
RIVERTON       CLOUDY    24  15  68 N5        29.61F WCI  18
CASPER         SNOW      31  30  96 NE7       29.62S VSB 1/2 WCI  24
DOUGLAS        SNOW      32  31  96 N7        29.62F VSB 1/2 WCI  26

$$
WYZ021-027>030-104>119-030200-
SOUTHERN WYOMING

CITY           SKY/WX    TMP DP  RH WIND       PRES   REMARKS
EVANSTON       CLOUDY    31  27  85 W9        29.57R WCI  23
KEMMERER       CLOUDY    30  27  86 E3        29.57R
FORT BRIDGER   FAIR      29  27  91 SE7       29.59S WCI  22
ROCK SPRINGS   CLOUDY    29  27  92 SW9       29.58F WCI  20
DIXON          LGT SNOW  33  32  96 CALM      29.64S
RAWLINS        CLOUDY    31  29  92 CALM      29.57S
SARATOGA       LGT SNOW  34  32  93 SW10G22   29.60R WCI  26
LARAMIE        FAIR      39  28  64 SW14      29.53F WCI  31
CHEYENNE       FAIR      34  23  64 S10       29.58F HAZE    WCI  26
TORRINGTON     FAIR      39  24  55 E9        29.60F WCI  33
PINE BLUFFS    FAIR      34  27  75 SE7       29.60F WCI  28

$$



USA.gov is the U.S. government's official web portal to all federal, state and local government web resources and services.